Skip Page Navigation
NASA JPL Caltech
NASA Logo - Jet Propulsion Laboratory + View the NASA Portal
+ Center for Near-Earth Object Studies
JPL Home Earth Solar System Stars & Galaxies Technology
JPL Solar System Dynamics
BODIES ORBITS EPHEMERIDES TOOLS PHYSICAL DATA DISCOVERY FAQ SITE MAP
IMPORTANT: The SSD Announcement email list is now available. Major changes are coming in the near future, including possible hostname and/or URL changes. To be notified of such changes, subscribe to this email list.

Please visit this page for more details.


JPL Small-Body Database Browser
Search: [ help ]  
226046 (2002 GV75)
Classification: Mars-crossing Asteroid          SPK-ID: 2226046
Ephemeris | Orbit Diagram | Orbital Elements | Mission Design | Physical Parameters | Discovery Circumstances | Close-Approach Data ]

[ show orbit diagram ]
Orbital Elements at Epoch 2458600.5 (2019-Apr-27.0) TDB
Reference: JPL 14 (heliocentric ecliptic J2000)
 Element Value Uncertainty (1-sigma)   Units 
e .2287257741202549 5.7172e-08  
a 2.136541406311926 1.2453e-08 au
q 1.647859319213252 1.1885e-07 au
i 2.473291771198598 3.7589e-06 deg
node 252.2410688526295 0.00015288 deg
peri 33.44413648513137 0.00015381 deg
M 111.1736490603091 1.669e-05 deg
tp 2458248.238842587401
(2018-May-09.73884259)
5.2972e-05 TDB
period 1140.684125603739
3.12
9.9725e-06
2.73e-08
d
yr
n .3156000788644797 2.7592e-09 deg/d
Q 2.6252234934106 1.5301e-08 au
  Orbit Determination Parameters
   # obs. used (total)      306  
   data-arc span      7109 days (19.46 yr)  
   first obs. used      1999-05-18  
   last obs. used      2018-11-03  
   planetary ephem.      DE431  
   SB-pert. ephem.      SB431-N16  
   condition code      0  
   norm. resid. RMS      .58141  
   source      ORB  
   producer      Otto Matic  
   solution date      2019-Jul-13 16:37:57  

Additional Information
 Earth MOID = .631546 au 
 Jupiter MOID = 2.53685 au 
 T_jup = 3.682 
[ show covariance matrix ]

Ephemeris | Orbit Diagram | Orbital Elements | Mission Design | Physical Parameters | Discovery Circumstances | Close-Approach Data ]

Physical Parameter Table
Parameter Symbol Value Units Sigma Reference Notes
absolute magnitude H 17.8   n/a MPO459996  

226046 (2002 GV75)          Discovered 2002-Apr-09 by LINEAR at Socorro
Reference: 20091202/Numbers.arcLast Updated: 2009-12-04

[ show close-approach data ]
Ephemeris | Orbit Diagram | Orbital Elements | Mission Design | Physical Parameters | Discovery Circumstances | Close-Approach Data ]
ABOUT SSD CREDITS/AWARDS PRIVACY/COPYRIGHT GLOSSARY LINKS
FirstGov 2019-Dec-16 08:22 UT
(server date/time)  
NASA Home Page
Site Manager:   Ryan S. Park
Webmaster  Alan B. Chamberlin